Location: Saint-Denis
(20.8800°S, 55.4481°E)
Time: 13:06:30
(UTC+04:00)

FENGYUN 1C DEB - Pass Details

Date: 28 February 2024
Orbit: 798 x 864 km, 98.6° (Epoch: 24 April)

Event Time Altitude Azimuth Distance (km) Brightness Sun altitude
Rises 18:59:54 0° 156° (SSE) 3,422 ? -3.9°
Reaches altitude 10° 19:02:29 10° 147° (SSE) 2,470 ? -4.5°
Maximum altitude 19:07:31 37° 80° (E) 1,270 ? -5.6°
Drops below altitude 10° 19:12:24 10° 14° (NNE) 2,405 ? -6.7°
Sets 19:14:52 0° 6° (N) 3,321 ? -7.3°
